Hourly Data Report for September 19, 2017

All times are specified in Local Standard Time (LST). Add 1 hour to adjust for Daylight Saving Time where and when it is observed.

SAINT JOHN A
NEW BRUNSWICK

45°18'58.000" N
65°53'24.000" W
108.80 m
8104901
71609
YSJ

Download Data

Hourly Data (September 2017)
Hourly Data Report for September 19, 2017
Temp Definition
°C
Dew Point Temp Definition
°C
Rel Hum Definition
%
Wind Dir Definition
10's deg

Wind Spd Definition
km/h
Visibility Definition
km
Stn Press Definition
kPa
Hmdx Definition


Wind Chill Definition


Weather Definition


TIME
00:00 Legend Double Dagger 15.8 15.6 99 16 7 4.8 101.17     Fog
01:00 Legend Double Dagger 15.8 15.6 99 11 7 2.4 101.16     Fog
02:00 Legend Double Dagger 15.9 15.7 99 36 2 8.1 101.08     Fog
03:00 Legend Double Dagger 16.1 15.7 98 14 4 4.8 101.09     Fog
04:00 Legend Double Dagger 16.1 15.8 98 10 10 3.2 101.08     Fog
05:00 Legend Double Dagger 16.2 15.9 98 12 9 3.2 101.09     Fog
06:00 Legend Double Dagger 16.3 15.9 97 11 11 4.8 101.08     Moderate Snow Grains,Fog
07:00 Legend Double Dagger 16.5 16.0 97 10 13 9.7 101.07     Fog
08:00 Legend Double Dagger 17.0 16.3 96 11 14 9.7 101.09     Fog
09:00 Legend Double Dagger 17.3 16.3 94 10 10 14.5 101.11     LegendNANA
10:00 Legend Double Dagger 18.0 16.4 90 7 8 24.1 101.11     LegendNANA
11:00 Legend Double Dagger 18.9 16.6 86 9 14 24.1 101.07     Cloudy
12:00 Legend Double Dagger 18.9 16.5 86 10 11 24.1 101.05     LegendNANA
13:00 Legend Double Dagger 19.3 17.1 87 11 14 24.1 100.99     LegendNANA
14:00 Legend Double Dagger 20.1 17.7 86 16 9 24.1 100.94 26   Mostly Cloudy
15:00 Legend Double Dagger 20.0 17.6 86 13 7 24.1 100.87 26   LegendNANA
16:00 Legend Double Dagger 20.2 17.9 87 13 8 24.1 100.81 26   LegendNANA
17:00 Legend Double Dagger 20.2 18.2 88 10 4 24.1 100.79 26   Mostly Cloudy
18:00 Legend Double Dagger 19.4 18.0 91 6 5 24.1 100.78     LegendNANA
19:00 Legend Double Dagger 18.8 17.9 94 5 5 24.1 100.79     LegendNANA
20:00 Legend Double Dagger 18.5 17.8 96 4 3 24.1 100.80     Cloudy
21:00 Legend Double Dagger 19.1 18.4 95 11 11 24.1 100.77     LegendNANA
22:00 Legend Double Dagger 18.3 17.8 96 9 4 24.1 100.77     LegendNANA
23:00 Legend Double Dagger 18.6 18.1 97 10 6 24.1 100.74     Cloudy

Notes on Data Quality.

Legend

  • E = Estimated
  • M = Missing
  • NA = Not Available
  • ‡ = Partner data that is not subject to review by the National Climate Archives
Date modified: